Wind_Speed
59 60 59 58 58 58 58 57 56 55 55 55 54 53 52 52 52 53 54 54 53 51 49 49 49 49 49 49 49 49 47 45 44 43 42 42 42 42 42 43 43 43 43 44 44 44 44 44 45 45 44 44 45 45 46 47 47 47 46 45 45 46 45 45 45 45 44 44 43 43 43 43 43 43 43 44 46 47 46 43 41 40 40 40 42 43
57 58 58 58 57 57 58 57 56 55 55 55 54 54 53 53 53 53 54 55 54 52 50 49 48 49 49 49 50 50 49 47 46 45 44 44 44 44 44 44 44 44 44 45 45 46 46 46 46 46 45 45 45 46 46 47 47 46 46 45 46 46 45 45 45 45 44 44 44 44 44 43 43 43 44 45 46 47 47 45 42 40 40 41 42 42
56 56 56 56 56 56 57 56 56 54 54 53 53 53 53 53 53 53 53 54 54 54 53 51 49 49 49 50 50 51 50 49 48 47 46 46 46 46 46 45 45 45 45 46 46 47 47 47 46 46 46 46 46 46 46 46 46 46 46 46 46 46 45 45 45 45 45 44 44 44 44 44 43 44 45 46 47 48 48 46 43 41 40 41 41 42
55 55 55 55 55 55 55 55 55 55 54 53 53 52 52 52 52 52 52 52 53 54 55 54 52 51 50 50 51 51 51 51 50 49 48 48 48 48 48 47 47 47 47 47 47 48 48 47 47 47 47 48 48 48 47 46 46 46 46 46 46 46 46 45 45 45 45 45 45 44 44 44 44 44 45 46 48 49 49 47 43 41 40 41 41 41
55 55 56 55 55 55 55 55 55 55 55 55 54 53 52 52 53 53 52 51 52 53 55 55 55 53 52 51 50 51 51 50 50 50 49 50 50 50 50 49 49 49 48 48 48 48 48 48 48 47 48 48 49 50 49 48 47 46 46 46 46 47 47 46 45 45 45 45 45 45 44 44 44 45 46 47 48 49 49 47 43 41 40 41 41 41
55 55 56 56 56 57 56 56 56 56 56 56 55 54 53 53 53 53 53 52 52 52 53 54 55 54 53 52 51 50 49 49 49 49 50 51 51 52 52 52 51 50 49 48 48 47 48 48 48 48 48 49 50 52 52 51 49 47 46 46 46 47 48 47 46 45 45 45 46 45 45 45 45 46 47 48 49 50 49 46 43 41 41 41 40 40
55 55 54 55 56 56 56 56 56 56 56 56 56 56 55 55 54 53 53 53 53 52 53 53 54 54 54 53 51 49 48 47 48 49 51 52 52 53 53 53 53 51 50 49 48 47 47 48 49 50 50 50 51 53 54 54 52 49 47 45 45 47 48 48 46 45 44 45 46 46 46 46 47 47 48 49 50 50 49 46 43 41 40 40 40 40
54 54 54 54 54 55 55 55 55 55 55 56 57 57 57 57 56 55 55 54 53 53 52 53 53 53 54 54 52 49 47 46 48 50 51 53 54 54 54 54 53 52 51 50 49 48 48 49 49 50 51 51 51 53 55 56 55 53 49 46 45 46 47 48 47 46 45 45 46 46 46 47 48 48 49 50 50 50 49 45 42 41 40 40 39 40
54 54 54 54 54 55 56 56 56 55 55 56 56 57 57 58 58 57 56 56 55 54 53 53 53 54 54 54 52 50 47 46 48 50 53 54 55 55 55 53 52 51 51 50 50 50 49 50 50 51 51 52 52 53 55 57 58 56 52 49 46 46 46 47 47 47 46 46 45 46 47 48 49 50 50 50 51 51 48 44 41 40 39 39 39 39
54 54 54 54 54 55 55 56 56 55 54 55 55 56 56 56 57 57 57 57 56 55 54 54 54 54 54 54 53 50 48 47 48 51 53 54 55 55 53 52 51 51 51 51 51 51 51 51 51 51 52 52 53 54 56 58 60 59 56 52 48 46 46 47 48 48 47 46 45 46 48 50 51 51 51 51 51 50 47 43 40 39 38 38 39 40
54 54 54 54 54 54 55 55 55 54 54 54 55 55 55 55 55 55 56 56 56 55 55 54 54 54 54 54 54 52 50 48 48 49 51 52 52 51 50 49 49 50 51 52 53 53 53 53 52 52 52 53 54 55 57 60 61 62 60 56 52 48 46 47 48 49 48 47 46 47 49 51 53 52 51 51 51 50 46 42 39 38 37 38 39 40
54 54 54 54 54 54 54 55 54 54 54 54 54 54 54 54 54 54 54 55 55 54 54 54 54 54 53 54 54 54 52 50 48 48 48 49 49 48 48 48 49 50 52 53 54 54 54 54 53 53 52 53 54 55 57 59 61 62 61 59 55 51 48 47 48 49 49 48 47 48 51 53 54 52 51 51 50 49 45 41 38 37 37 38 39 40
54 54 54 54 54 54 54 54 54 54 54 54 54 54 54 54 53 53 54 54 54 54 53 53 54 54 53 53 53 54 53 50 48 47 47 47 47 47 48 49 50 51 52 54 55 55 55 55 54 54 53 52 53 53 54 56 59 60 61 60 57 54 50 47 48 50 50 49 49 51 53 54 54 52 50 50 50 47 43 39 37 36 37 38 39 40
54 53 53 53 54 54 54 54 54 54 54 53 53 53 54 54 53 53 54 54 54 53 53 53 53 54 53 52 52 52 51 49 47 46 46 46 46 47 48 49 50 51 53 54 55 56 56 56 55 55 54 53 52 52 52 54 56 58 59 58 57 54 50 48 48 50 51 51 51 53 55 55 53 51 50 50 48 45 41 38 36 36 37 38 39 40
54 53 53 53 52 52 52 53 53 53 53 52 52 53 53 52 52 51 52 53 53 53 52 52 53 53 53 52 51 50 50 48 46 45 45 44 44 45 47 49 50 51 52 54 56 57 58 57 57 56 54 53 52 52 52 53 54 55 56 56 54 52 50 48 49 50 52 52 53 55 56 55 53 51 50 49 46 43 39 37 36 36 37 38 39 39
55 55 54 53 53 53 52 52 51 51 50 50 50 51 51 51 51 50 51 51 52 52 52 52 52 52 52 51 50 49 49 49 47 46 45 43 43 44 46 48 50 51 52 53 55 57 58 58 57 56 55 54 53 52 52 53 53 53 53 53 51 50 49 48 49 51 52 53 55 56 56 55 53 51 49 47 44 40 37 36 35 36 37 38 38 38
56 56 56 55 55 55 54 53 52 52 51 51 51 52 52 53 53 52 51 51 51 51 51 51 50 50 50 50 49 49 49 50 49 48 47 45 44 43 45 47 48 48 48 48 50 52 53 55 56 56 55 54 54 53 52 52 52 51 50 50 49 48 49 49 50 51 53 54 55 56 56 54 52 49 46 44 40 38 36 35 35 36 37 37 37 36
56 56 56 56 57 57 56 56 55 55 54 54 54 54 54 54 54 53 52 50 49 49 49 49 49 48 48 48 48 48 48 48 48 47 46 45 43 42 42 42 43 42 42 43 44 45 47 49 51 53 54 54 54 53 52 52 51 50 48 47 46 47 49 50 51 52 53 54 55 55 54 51 48 45 42 40 38 36 35 35 35 36 36 36 35 35
56 56 56 56 57 57 57 57 56 56 55 55 55 55 54 53 52 51 50 49 48 47 47 47 47 47 47 47 48 47 46 45 43 42 41 40 39 38 38 38 39 39 40 40 41 43 44 45 47 49 51 53 53 53 52 52 50 49 47 45 44 45 47 49 51 52 52 53 53 52 50 46 43 41 38 37 35 35 34 35 35 35 35 35 34 34
55 55 55 55 56 56 56 56 55 55 55 55 54 54 54 53 51 50 50 49 48 48 47 47 47 47 47 47 47 47 46 44 42 40 38 37 37 37 37 37 38 39 40 41 42 42 43 43 45 46 48 50 52 52 51 51 50 48 46 44 44 45 47 48 50 50 51 50 49 47 44 41 39 37 36 35 34 34 34 34 35 34 34 33 33 33
53 54 54 54 54 54 55 55 54 54 54 54 53 53 53 52 52 51 50 49 48 48 48 48 47 47 46 46 47 47 46 45 43 41 39 38 38 38 38 38 38 39 40 41 42 42 42 42 43 44 46 48 49 50 50 50 48 46 45 44 44 45 47 48 49 49 48 46 44 41 39 37 36 35 34 34 33 33 34 34 34 33 32 32 32 32
52 52 52 52 52 53 53 53 53 53 52 52 51 51 51 51 50 50 49 48 48 48 49 49 48 47 46 47 47 48 47 46 44 42 41 41 40 39 38 38 39 40 41 42 42 41 41 41 42 43 45 46 47 48 48 47 46 44 43 44 45 46 47 47 47 46 44 41 39 37 35 35 34 34 33 33 33 33 33 33 32 32 31 31 31 32
50 50 50 50 50 51 52 52 52 52 51 51 50 50 50 49 49 49 48 48 48 48 48 48 48 47 47 47 47 47 47 46 44 44 43 43 42 40 39 39 41 42 42 42 42 41 40 40 41 42 43 45 45 45 45 44 43 42 42 43 44 45 46 45 44 41 39 36 35 34 34 33 33 33 32 32 32 32 32 32 31 30 30 31 31 31
48 49 49 49 49 49 50 50 50 50 49 49 49 49 48 48 48 48 48 48 47 47 47 47 47 47 47 47 47 47 46 46 45 44 43 41 39 39 39 41 42 43 42 42 41 40 39 39 39 40 41 42 42 41 41 41 41 41 41 42 43 43 43 42 39 37 35 33 33 32 32 32 32 31 31 31 31 31 31 30 30 29 30 30 31 31
47 47 47 47 47 47 47 48 47 47 47 46 46 46 46 47 47 47 47 47 46 46 46 46 47 47 47 47 47 47 47 46 45 42 39 37 37 39 41 42 42 42 41 40 39 38 37 37 38 38 38 38 38 38 38 39 39 39 39 40 41 40 39 37 35 33 32 31 31 31 31 31 31 30 31 31 31 30 30 29 29 29 30 30 31 31
46 46 46 46 46 46 45 45 45 44 44 44 44 44 44 45 45 45 46 45 45 44 44 45 47 47 47 47 47 47 47 45 41 37 35 35 38 40 42 42 42 41 40 38 37 36 35 35 35 35 36 36 36 36 37 37 37 37 38 38 38 37 35 33 32 31 30 31 31 30 30 30 30 30 30 30 30 29 28 28 28 29 30 30 30 30
45 45 45 45 44 44 44 43 43 42 42 42 42 43 43 43 44 44 44 43 43 43 44 46 47 48 48 48 48 47 44 40 37 35 35 36 39 41 42 42 41 39 38 36 35 33 33 33 34 34 35 35 36 36 36 35 35 35 35 35 34 33 32 30 30 30 30 30 30 29 29 29 29 30 30 29 28 28 27 28 29 29 30 30 30 29
43 43 43 43 43 42 42 41 41 41 41 41 41 42 42 43 43 43 43 42 42 42 44 46 47 48 48 48 47 44 41 37 35 35 36 38 40 42 42 40 39 37 36 35 33 32 33 33 34 35 36 36 36 35 34 33 32 32 32 32 31 30 29 29 29 29 29 29 28 28 28 29 29 29 29 28 27 27 27 28 29 30 30 30 29 28
42 42 42 42 41 41 41 40 40 40 40 40 41 41 42 43 43 43 43 42 42 44 46 47 47 47 46 45 43 41 38 36 36 37 38 39 41 42 41 39 38 36 35 34 33 33 34 36 37 38 38 36 35 33 31 30 29 29 29 29 28 27 27 28 28 28 28 28 28 28 28 29 29 28 27 26 26 27 27 28 29 29 29 29 28 27
41 41 41 40 40 40 40 40 39 39 39 40 40 41 41 42 43 43 43 43 43 45 47 47 46 44 42 41 40 40 38 37 37 37 39 40 41 42 40 38 36 34 33 32 32 33 35 36 38 39 38 36 33 30 28 27 27 27 26 26 26 26 27 27 27 27 27 27 27 28 28 28 27 26 26 26 26 27 28 28 29 29 29 28 27 26
41 40 40 39 39 39 39 39 39 39 39 39 39 40 40 41 42 42 43 43 44 45 46 45 43 41 39 39 40 40 39 38 38 39 40 42 43 42 39 36 33 31 30 29 30 31 33 34 35 36 35 32 29 27 26 25 25 25 25 25 25 26 26 26 27 27 27 27 27 28 27 27 26 25 26 26 27 27 28 28 29 28 28 27 26 25
41 41 40 39 39 38 38 38 38 39 39 39 39 39 39 40 40 41 41 42 43 44 44 43 41 40 40 40 40 40 39 39 40 41 43 43 43 40 36 32 29 28 27 27 27 28 29 30 30 30 29 28 26 25 24 24 24 24 24 24 25 25 26 26 26 26 27 27 27 26 26 25 25 25 26 26 27 27 28 28 28 28 27 26 25 24
42 41 41 40 40 39 39 38 38 38 39 38 38 38 38 39 39 40 40 40 41 41 41 41 41 41 40 40 39 39 39 40 42 43 44 43 39 35 31 28 27 26 26 26 25 25 24 24 24 24 24 24 24 24 24 24 23 23 24 24 24 25 25 26 26 26 26 26 26 25 25 24 25 25 26 26 26 27 27 27 27 27 26 25 24 24
42 42 41 41 41 40 39 39 39 39 38 38 38 38 38 38 39 39 39 39 38 38 39 39 39 40 39 38 37 37 39 41 43 43 42 38 34 30 28 27 26 26 25 24 23 21 19 19 20 22 23 23 24 24 23 23 23 23 24 24 24 25 25 25 26 25 25 25 24 24 24 24 24 25 25 26 26 26 27 27 26 26 25 25 24 24
41 41 41 41 41 40 40 39 39 39 38 38 38 38 38 38 38 39 39 38 37 36 36 37 37 37 37 37 37 38 40 41 42 40 36 32 29 27 27 26 26 25 23 21 19 18 18 19 21 22 23 23 23 23 23 23 23 23 24 24 24 24 25 25 25 24 24 24 23 23 23 24 24 25 25 25 26 26 26 26 26 25 25 24 24 24
40 40 40 40 40 40 40 39 39 38 38 38 38 37 37 37 38 39 39 38 36 35 35 35 36 36 37 38 39 40 40 40 38 34 31 28 27 26 26 25 24 22 20 18 17 17 18 19 21 22 22 23 23 23 22 23 23 23 23 23 24 24 24 24 24 23 23 23 22 23 23 24 24 24 25 25 25 25 25 25 25 24 24 24 24 24
39 39 39 39 40 40 39 39 38 38 38 37 37 37 37 37 37 38 38 37 37 36 35 35 36 37 38 40 40 40 38 36 33 30 27 26 25 24 23 22 20 19 17 17 18 18 19 20 20 21 21 22 21 21 21 22 22 22 23 23 23 23 23 23 23 22 22 22 22 23 23 23 24 24 24 25 25 25 24 24 24 24 24 24 24 24
38 38 38 38 39 39 39 38 38 38 37 37 37 36 36 36 36 37 37 36 36 35 35 36 37 38 39 40 39 37 34 32 29 27 25 24 22 21 20 19 18 18 18 18 19 19 20 20 20 20 20 20 20 21 21 22 22 22 22 22 22 22 22 22 22 21 21 22 22 22 23 23 23 24 24 24 24 23 23 23 23 23 23 24 24 24
37 37 37 38 38 38 38 38 38 37 37 37 36 36 35 35 35 35 36 36 35 35 34 35 36 37 37 37 35 32 30 27 25 24 22 21 20 18 17 18 18 19 19 19 19 19 20 20 20 20 20 20 20 21 21 21 21 21 21 21 22 22 21 21 21 21 21 21 22 22 22 23 23 23 23 23 23 22 22 22 22 23 23 24 24 25
37 37 37 37 37 37 37 37 37 37 37 36 35 35 34 33 34 34 35 35 35 35 34 34 34 34 34 32 30 27 24 23 22 21 19 18 18 17 18 18 19 19 19 19 18 18 18 18 19 19 19 20 20 21 21 21 21 21 21 21 21 21 21 20 20 20 20 20 21 21 22 22 22 22 22 21 21 21 21 22 22 23 24 24 25 25
37 37 37 36 36 37 37 37 37 36 36 35 34 33 32 32 32 33 34 35 36 35 34 33 31 30 29 27 24 21 20 19 18 18 17 17 17 18 19 19 19 18 18 17 17 17 17 17 18 18 19 19 20 20 20 20 20 20 20 20 20 20 20 20 19 19 20 20 20 21 21 21 21 21 20 20 20 21 21 22 22 23 24 25 25 25
37 37 36 36 36 36 36 36 35 35 34 34 33 32 31 32 32 33 34 35 34 33 31 29 26 24 22 20 18 17 16 16 16 17 17 17 18 18 18 18 17 17 16 16 16 16 16 17 17 18 19 19 19 19 20 20 20 20 20 19 19 19 19 19 19 19 19 19 20 20 20 20 20 19 20 20 20 21 21 22 23 24 24 25 25 25
37 36 36 36 35 35 34 34 33 33 32 32 31 31 31 32 32 33 33 32 30 28 26 24 21 19 17 16 15 14 15 16 16 17 17 17 17 17 17 16 16 15 15 15 15 15 16 16 17 18 18 18 19 19 19 20 20 19 19 19 19 19 19 19 18 19 19 19 19 19 19 19 19 19 19 20 20 21 22 22 23 24 24 25 25 25
36 36 36 35 34 34 33 32 31 31 31 30 30 31 31 31 32 31 30 28 25 23 21 20 18 16 15 15 14 15 15 16 17 17 16 16 16 16 16 15 15 15 14 15 15 15 16 17 17 17 18 18 18 19 19 20 19 19 19 18 18 18 18 18 18 18 18 18 18 18 18 18 18 19 19 20 21 21 22 23 23 24 24 24 24 24
36 35 34 34 33 32 31 31 30 30 30 30 30 30 30 30 29 27 25 22 20 19 17 16 15 14 14 15 16 16 17 17 17 17 16 15 15 15 15 15 14 14 15 15 15 16 16 17 17 17 17 18 18 19 19 19 19 18 18 18 18 17 18 18 18 17 17 17 17 17 17 18 18 19 20 20 21 21 22 23 23 24 24 24 24 23
34 34 33 32 31 30 30 30 30 30 30 30 30 30 29 27 25 23 20 18 16 14 14 13 13 14 15 16 17 18 18 18 17 16 15 15 15 15 15 15 15 15 15 16 16 16 16 16 16 16 16 17 17 18 18 18 17 17 17 17 17 17 17 17 17 16 16 17 17 17 18 18 19 19 20 20 21 21 22 22 23 23 23 23 23 22
33 32 31 30 29 29 29 29 30 30 30 30 30 28 26 24 21 18 16 14 13 12 12 12 13 14 15 16 17 17 17 17 16 15 15 15 15 15 15 15 15 15 16 16 16 16 16 16 15 15 16 16 16 17 17 16 16 16 16 16 16 17 17 16 16 16 16 17 17 18 18 19 19 20 20 21 21 21 22 22 22 23 23 23 22 21
33 31 30 28 28 27 28 29 29 30 30 30 28 26 23 20 17 15 13 12 11 11 12 13 14 14 14 15 15 16 16 16 15 14 15 15 15 15 15 15 15 16 16 16 16 15 15 14 14 15 15 15 15 16 16 16 15 16 16 16 16 16 17 17 16 16 17 18 18 19 19 19 20 20 20 20 21 21 21 21 22 22 22 22 22 21
32 30 29 28 27 27 28 28 29 29 29 28 26 23 20 18 15 13 11 11 11 12 13 13 13 13 12 13 13 14 15 15 15 14 14 15 14 14 15 15 16 16 16 15 15 14 14 14 14 15 15 15 15 15 15 15 15 15 15 16 16 16 17 17 17 17 18 18 19 19 20 20 20 20 20 20 20 20 20 21 21 22 22 22 22 21
31 29 28 27 27 27 27 27 27 28 27 26 24 21 19 16 14 13 12 12 13 13 14 13 13 12 11 11 12 13 14 14 14 14 14 14 14 14 15 15 15 15 14 13 13 13 13 13 14 15 15 15 15 15 15 15 15 15 15 15 16 16 17 17 17 18 18 19 19 20 20 20 20 20 20 20 20 20 20 20 21 21 22 22 22 22
30 28 27 26 26 26 25 25 26 26 25 24 22 20 18 16 15 14 14 14 14 14 14 13 12 11 11 11 12 13 13 13 13 13 13 14 14 14 15 14 14 13 12 11 11 12 12 13 14 14 14 14 14 14 14 14 15 15 15 15 16 16 17 17 18 18 19 19 20 20 20 20 20 20 20 19 19 19 20 20 21 21 22 23 23 23
Wind_Direction
282 283 283 283 282 281 281 280 279 279 278 279 279 280 280 281 282 283 283 283 283 283 283 282 280 277 274 270 265 261 257 255 254 255 255 254 254 255 255 256 255 255 254 254 253 252 253 253 253 252 252 251 251 251 251 251 252 253 254 254 254 253 253 255 259 261 262 262 261 262 263 264 265 266 267 269 271 273 273 272 271 271 272 274 276 278
281 282 282 282 282 282 282 281 281 280 280 279 279 278 278 279 279 280 281 281 282 283 283 282 281 280 277 273 268 263 257 253 252 253 253 253 254 254 255 255 255 254 254 253 253 252 252 252 252 252 251 250 250 251 252 252 252 253 253 253 253 253 252 254 258 260 261 261 261 262 263 264 265 266 267 268 270 272 273 272 271 270 272 274 276 278
281 281 281 281 282 282 282 282 282 282 281 281 280 280 279 278 277 277 278 279 280 281 282 282 282 281 279 276 272 267 260 255 251 251 251 252 253 253 254 255 255 254 254 254 253 253 253 252 252 252 252 250 250 250 251 252 252 252 252 252 252 252 252 254 257 259 260 261 261 262 263 264 265 266 266 267 269 271 273 272 271 271 272 274 276 278
279 280 280 280 280 281 281 281 282 282 281 281 281 281 281 280 279 278 277 278 278 279 280 280 280 280 279 278 275 270 264 258 253 250 250 251 252 252 253 254 255 254 254 254 254 254 254 254 253 253 252 252 251 250 250 250 251 252 251 251 251 252 252 253 255 258 260 260 261 262 263 264 265 266 266 267 269 271 272 272 272 272 273 275 277 278
279 279 279 279 279 279 279 280 280 281 281 281 281 281 282 282 282 281 280 278 277 277 278 278 279 279 279 278 276 273 267 261 255 251 250 250 251 252 253 254 255 255 255 255 255 255 255 255 255 254 254 253 252 251 249 249 250 251 251 251 251 251 251 251 253 256 259 260 262 262 263 264 265 266 266 267 269 270 272 272 272 272 274 276 277 279
279 279 279 279 279 279 279 279 279 279 280 280 281 281 281 282 282 282 282 280 278 277 276 276 276 277 277 277 276 273 268 262 256 252 251 251 251 252 253 255 256 255 255 256 256 256 256 256 256 256 255 255 254 252 250 248 248 249 251 252 252 251 250 250 251 254 258 260 262 263 263 264 265 265 266 267 268 270 271 272 272 273 275 276 277 278
280 280 280 280 280 280 279 279 279 279 279 280 280 280 280 280 281 281 281 281 280 278 277 276 275 275 275 274 274 272 268 262 256 253 251 251 251 253 254 256 256 256 256 257 258 258 257 257 256 256 256 256 255 254 252 249 247 248 249 251 252 252 251 251 251 253 257 259 261 262 263 263 264 264 265 266 268 269 270 271 272 274 275 276 277 279
282 281 281 281 281 281 280 280 279 279 279 280 280 281 281 281 280 280 280 280 280 279 278 276 275 274 274 273 271 269 265 261 256 253 251 251 252 254 256 257 256 256 256 258 259 259 259 258 257 256 255 255 256 255 254 252 249 248 248 249 251 251 252 252 252 254 256 258 260 262 263 263 263 263 264 265 267 268 269 270 272 274 275 276 278 279
283 282 282 281 281 281 281 280 280 280 280 281 281 281 282 282 281 281 281 281 280 280 279 278 277 276 274 273 271 268 263 259 256 253 252 252 254 256 258 258 256 256 257 258 260 261 260 259 258 256 255 255 255 255 255 254 252 249 247 247 248 250 251 252 253 254 255 257 259 261 262 262 261 261 262 264 266 267 268 269 272 274 275 277 278 280
282 282 282 282 282 281 282 282 281 281 281 281 281 281 282 282 282 282 282 282 281 281 280 279 278 278 277 275 272 268 262 258 256 255 254 255 257 259 259 258 256 256 257 259 260 261 261 260 259 257 256 255 255 255 255 255 254 252 248 246 246 247 249 251 253 254 255 255 257 260 261 261 260 260 261 263 265 266 267 269 271 273 275 277 278 280
281 281 282 282 282 282 282 282 282 282 282 282 282 282 281 281 282 282 283 283 283 282 282 281 280 279 279 277 274 268 262 258 256 256 256 258 260 260 260 258 257 256 258 259 261 261 261 260 259 258 256 255 255 255 256 256 255 254 251 248 246 246 248 250 252 254 255 256 257 259 260 260 259 259 260 263 265 266 267 269 271 273 275 277 278 280
280 281 281 281 282 282 282 282 282 283 283 283 283 282 282 281 281 282 283 283 283 283 283 282 281 281 280 278 274 269 262 258 256 256 257 259 260 260 259 258 257 257 258 260 260 260 260 259 258 258 257 256 256 256 257 258 258 257 255 252 249 247 247 249 252 254 256 256 257 258 259 259 259 259 261 263 264 265 266 268 271 273 275 277 278 279
280 281 281 281 281 282 282 282 282 283 283 283 283 283 283 283 282 282 282 281 281 282 282 282 282 281 281 279 276 271 265 259 257 257 257 258 258 259 259 258 258 259 259 260 260 259 259 258 258 257 257 257 257 257 258 259 260 260 259 256 252 249 246 247 250 254 256 257 258 258 259 259 259 259 261 262 263 264 266 268 271 273 275 276 277 279
280 280 281 281 282 282 282 283 283 283 283 284 284 284 284 283 283 282 282 281 281 281 282 282 282 282 281 281 279 275 269 264 260 257 257 256 257 258 258 259 259 259 260 260 259 259 258 258 258 257 257 257 258 258 259 260 262 262 262 260 255 250 245 245 248 252 255 256 257 258 258 259 259 260 260 261 262 264 266 268 271 273 274 276 277 278
279 279 280 280 281 282 282 283 283 284 286 286 286 286 284 283 283 283 283 283 283 282 282 282 282 282 282 282 281 279 276 270 264 260 257 257 257 258 258 259 259 259 259 259 259 259 259 259 259 258 257 257 257 258 259 261 263 265 265 262 257 249 243 243 246 251 254 255 256 257 258 258 258 259 259 260 261 263 266 268 271 272 274 276 277 278
278 278 278 278 278 279 280 280 281 283 284 285 286 286 285 285 285 285 285 285 284 284 283 283 282 282 282 282 282 283 282 279 272 265 260 258 258 259 260 261 260 260 260 260 260 261 261 261 260 259 257 256 256 257 259 261 264 267 267 264 257 247 241 241 245 250 253 254 255 256 256 257 257 257 257 258 260 263 266 269 271 273 274 275 276 277
277 277 277 277 277 277 278 278 278 279 279 280 281 283 284 286 286 286 285 285 284 284 284 284 284 284 284 284 285 286 287 285 278 270 264 262 262 263 264 265 266 267 266 266 266 266 265 263 261 259 257 256 255 256 258 260 263 266 267 264 255 245 239 241 246 250 252 253 254 254 255 255 255 255 255 257 260 264 267 269 271 273 274 275 276 276
277 277 277 277 277 277 277 278 278 279 279 279 280 281 282 284 285 286 285 284 284 284 284 284 285 285 285 286 287 288 290 288 282 275 268 266 267 268 269 271 272 273 274 274 275 274 272 269 265 261 257 255 254 255 257 259 262 264 265 262 254 245 241 243 247 251 252 253 253 253 253 253 253 254 255 258 261 265 267 269 271 273 274 275 275 275
277 277 277 277 277 278 278 279 279 280 280 281 281 282 282 283 283 284 283 284 284 284 284 284 283 283 284 285 286 288 289 288 284 278 272 270 270 271 272 273 274 275 276 276 277 277 277 275 271 265 260 256 254 254 256 257 260 262 263 260 254 248 245 247 250 252 252 252 252 252 252 252 252 254 256 259 262 265 267 269 271 272 274 274 274 273
277 277 276 277 277 278 278 278 278 279 280 281 281 281 282 282 282 282 282 283 283 283 283 282 282 281 282 283 285 286 286 285 282 279 276 275 274 274 274 274 275 275 276 276 276 276 276 276 274 269 263 258 255 254 255 257 258 260 260 258 254 250 249 250 251 251 251 250 250 251 251 251 253 255 258 260 263 265 267 269 271 272 273 273 273 272
277 276 276 276 277 277 277 277 277 278 279 280 280 280 280 281 281 280 281 282 282 282 282 281 280 280 280 281 282 283 283 282 279 277 276 276 275 275 274 275 276 277 278 278 277 276 275 274 273 270 266 260 256 254 255 257 258 260 259 256 253 250 250 250 250 249 249 249 249 249 250 251 253 256 258 261 263 265 267 269 271 272 272 272 271 270
276 276 276 276 276 276 277 277 277 278 278 279 279 279 280 280 280 280 280 280 280 280 280 280 279 279 279 279 280 281 281 279 277 276 275 275 274 273 274 276 278 279 279 278 276 275 273 273 272 269 265 261 257 256 256 258 259 260 258 254 251 248 248 248 247 247 246 246 247 247 249 251 254 256 258 261 263 266 268 270 271 271 271 270 269 269
276 276 276 276 276 276 276 277 277 278 278 278 279 279 279 280 280 280 280 280 279 279 279 279 279 279 278 278 279 280 280 279 277 275 274 274 273 273 276 278 280 281 280 278 276 273 272 272 271 268 264 261 259 258 258 259 260 260 257 252 248 246 245 245 245 244 244 244 245 247 249 251 253 256 258 261 264 266 268 270 270 270 269 268 267 267
276 276 276 276 276 276 277 277 278 278 279 279 280 280 280 280 279 279 279 278 278 278 279 279 279 278 278 278 278 279 279 278 276 275 274 274 275 277 280 281 282 281 280 277 274 272 271 271 269 267 264 262 261 260 260 260 259 257 253 249 245 243 243 242 241 241 241 242 244 246 248 251 254 256 260 263 265 267 269 269 269 268 267 266 265 265
277 277 277 277 277 278 278 279 280 280 281 281 281 281 281 280 279 279 277 277 276 276 277 277 277 277 277 277 277 276 276 275 274 274 275 277 280 282 283 283 283 281 279 276 273 270 269 269 268 266 264 264 263 262 260 259 256 253 249 245 242 241 239 238 238 238 240 242 244 246 249 251 255 258 261 264 266 267 268 268 267 266 264 264 263 264
278 278 278 278 278 279 279 280 281 282 282 283 283 282 282 281 280 279 278 277 276 275 275 275 274 274 275 275 274 273 273 273 273 275 278 281 283 284 284 284 282 280 277 273 270 269 268 267 266 265 264 264 263 261 259 256 253 249 245 242 239 237 236 235 235 237 239 242 244 247 250 253 257 260 262 264 266 266 266 265 264 262 261 261 262 262
278 279 279 279 279 279 280 280 281 282 282 282 282 282 282 281 281 280 279 278 277 275 274 272 271 272 272 271 271 271 272 273 275 277 280 282 283 283 284 283 281 278 274 271 268 267 266 266 265 264 264 263 262 260 257 254 249 245 241 238 235 233 232 233 234 237 240 242 245 248 252 255 258 261 263 264 265 264 263 262 260 259 259 259 260 261
279 279 279 279 279 279 279 279 280 280 281 281 281 281 280 280 280 280 279 278 276 274 272 270 269 268 268 268 269 271 273 274 277 279 281 282 283 283 283 282 279 275 271 269 267 265 265 265 264 263 263 262 261 259 255 250 244 239 235 232 230 229 230 232 235 238 241 244 247 251 254 257 259 261 262 263 262 261 259 258 257 257 257 258 258 259
280 280 280 280 279 279 279 279 279 279 279 280 280 279 279 279 279 279 279 278 276 274 271 269 267 267 268 269 271 273 274 276 277 279 280 281 282 283 282 280 276 273 270 269 268 268 269 267 265 262 261 261 260 256 250 243 237 231 228 226 226 227 230 233 237 240 243 246 249 253 255 258 259 261 261 260 258 257 255 255 255 255 256 256 257 257
282 282 281 281 280 279 279 278 278 278 279 279 279 279 279 280 280 280 279 278 276 273 271 269 268 268 270 272 274 275 275 275 275 276 278 280 281 282 280 277 273 271 270 271 274 275 274 270 266 262 260 259 256 250 242 234 227 224 222 223 225 228 232 235 238 242 245 248 251 254 256 258 259 259 258 256 254 253 253 253 254 254 255 255 256 256
285 284 284 283 282 281 280 279 279 279 279 279 280 280 281 282 282 281 280 278 276 273 271 270 269 269 270 272 272 272 272 272 272 274 277 279 280 279 277 273 271 270 270 273 277 278 276 270 265 261 258 253 247 238 229 223 220 218 220 222 226 229 233 237 240 243 247 250 252 254 256 257 257 255 254 252 251 251 251 252 253 254 254 255 255 255
287 287 287 286 285 284 282 281 280 279 279 280 280 281 283 283 283 282 281 279 276 273 271 269 268 268 268 268 268 268 268 269 271 274 277 279 278 276 272 269 268 268 268 269 271 272 272 267 261 255 249 241 232 224 219 216 216 217 220 224 227 231 235 238 242 245 248 251 253 254 255 254 253 251 250 249 249 250 250 251 252 253 254 254 254 255
288 288 288 288 287 286 285 284 282 281 281 281 282 283 283 284 283 282 281 278 275 272 270 268 267 265 265 265 265 266 266 268 272 275 278 278 275 271 267 263 262 262 262 262 261 261 260 256 250 241 233 225 218 214 213 213 216 219 222 226 229 233 237 240 244 247 249 251 252 253 252 251 249 248 247 247 248 249 250 251 252 252 253 253 254 254
288 289 289 289 288 288 287 285 284 283 283 283 283 284 284 283 282 281 278 275 271 268 266 265 263 262 262 262 263 264 266 270 273 276 277 274 270 264 260 256 255 255 255 254 251 246 241 234 228 221 216 212 210 210 211 214 217 221 224 228 231 235 239 243 245 248 250 251 251 250 249 247 246 246 246 247 247 248 249 250 251 252 253 253 254 254
288 288 288 288 288 288 287 286 285 285 284 284 284 284 284 283 281 279 276 273 269 265 262 260 259 258 259 260 262 265 267 271 273 274 272 267 262 257 254 253 252 251 247 242 234 226 219 212 208 206 206 207 209 211 213 216 219 223 227 230 234 238 241 244 246 248 249 249 248 246 245 244 244 244 245 246 247 248 249 250 251 252 253 254 255 255
288 288 288 288 288 287 287 287 286 286 285 285 285 285 284 283 281 278 276 274 271 268 264 260 258 258 259 261 263 266 268 270 271 269 264 258 254 252 251 250 249 244 234 221 210 204 201 199 199 200 204 207 211 214 216 219 223 226 230 234 237 240 243 245 247 247 246 246 244 243 242 242 243 243 244 245 246 247 248 249 251 252 254 255 257 258
288 288 288 288 288 287 287 287 286 286 285 285 285 285 284 283 280 278 277 276 276 274 270 267 264 263 263 264 265 267 267 267 265 260 255 251 249 249 248 245 238 226 211 200 194 193 194 195 198 202 206 209 213 217 221 224 227 231 234 238 241 243 245 245 246 245 243 242 241 241 241 242 242 243 244 245 246 247 249 250 252 254 256 258 260 261
289 288 288 288 288 287 287 286 286 285 285 285 285 285 284 283 281 279 278 279 279 279 276 273 270 268 267 266 266 265 264 261 256 251 246 245 245 245 240 230 216 203 193 189 190 191 194 197 201 205 209 213 216 221 225 229 232 235 238 241 243 244 244 244 243 242 241 240 240 240 241 241 242 243 244 246 247 249 250 252 255 257 259 261 263 264
289 289 289 288 288 287 286 285 285 285 285 285 285 285 284 283 281 280 280 281 282 281 279 276 273 270 267 265 263 260 257 252 247 242 239 239 238 234 224 210 198 190 187 188 191 194 197 201 205 209 213 217 221 225 229 232 236 238 241 243 243 244 243 243 241 240 239 238 239 240 241 242 243 244 246 247 249 251 254 256 258 260 262 264 266 267
291 290 290 289 288 287 286 285 285 284 284 284 284 284 284 283 282 281 281 282 282 282 279 275 271 267 264 260 257 253 249 244 239 235 232 230 226 218 207 196 190 187 188 191 194 198 201 205 209 213 218 222 226 230 234 237 239 241 242 244 244 243 243 241 240 239 239 239 240 241 242 244 245 247 249 251 253 255 258 260 262 264 266 267 269 269
293 292 291 290 289 288 286 285 284 284 283 283 283 284 284 283 282 281 281 282 282 280 276 271 265 260 256 252 248 244 240 235 230 225 222 219 214 206 198 192 189 190 192 195 199 203 206 210 215 219 224 228 232 236 239 241 243 243 243 243 243 242 242 241 240 239 240 240 241 243 244 246 248 250 252 255 258 260 262 264 266 268 269 270 270 271
295 295 293 292 291 290 288 286 284 283 283 282 283 283 283 283 282 281 281 280 278 274 269 263 256 250 245 240 236 232 227 221 216 213 210 209 205 199 194 191 191 193 196 200 204 207 211 216 221 226 230 235 238 241 243 244 245 244 243 242 241 241 242 241 241 241 241 242 243 245 247 249 251 254 257 260 263 265 267 268 269 270 271 271 271 271
299 297 296 295 294 292 290 288 286 284 283 282 282 282 282 282 281 280 278 275 270 265 260 254 247 239 231 224 219 215 209 205 203 202 201 200 198 195 192 192 194 197 200 205 209 213 218 222 227 231 236 239 242 244 245 245 244 243 241 240 240 240 240 241 242 243 243 244 246 248 250 254 257 259 262 265 267 269 270 271 271 271 271 271 270 269
301 300 298 298 297 295 293 291 289 287 285 284 283 281 280 279 278 275 272 266 261 256 250 244 237 228 217 207 200 197 194 193 193 193 193 193 191 190 190 193 196 200 204 209 214 219 224 228 233 236 240 242 244 245 245 244 243 242 241 241 241 241 241 243 244 245 246 248 250 253 256 259 262 265 267 269 270 271 271 271 271 270 270 269 267 266
303 301 300 299 298 298 296 295 292 289 287 285 282 279 276 273 271 267 261 254 249 244 239 233 224 212 201 191 186 183 184 186 187 187 187 187 187 188 191 195 199 204 208 213 219 223 228 232 236 239 242 243 244 244 243 243 243 243 243 243 243 244 244 245 246 248 250 253 256 259 262 264 267 268 270 270 271 271 271 270 269 268 267 266 265 264
303 302 300 300 299 299 298 295 293 290 288 284 279 274 269 265 260 254 247 240 235 230 226 218 206 193 184 178 175 175 178 182 184 184 184 184 186 189 193 198 202 208 213 218 223 227 231 235 238 241 242 243 243 243 242 243 243 244 246 246 247 247 247 248 250 253 256 259 262 265 267 268 269 270 270 270 270 270 269 268 267 266 265 264 263 262
304 302 301 300 300 299 297 295 292 289 285 279 273 267 261 254 245 237 230 225 220 213 206 197 186 176 169 166 166 170 176 180 183 183 184 185 187 191 196 201 207 213 218 223 227 231 234 237 239 241 241 242 242 242 243 243 244 245 247 248 250 251 253 254 257 259 262 264 266 268 269 270 270 270 270 269 269 268 267 266 265 264 263 263 262 262
306 304 303 302 302 301 298 294 290 285 280 273 266 258 249 239 227 216 209 204 198 190 181 173 165 159 155 156 161 168 175 181 184 185 185 187 191 195 201 207 213 219 223 227 230 233 235 237 238 238 238 239 239 241 243 244 245 246 247 249 251 254 257 260 262 265 267 268 269 270 270 270 269 269 268 267 266 265 264 264 263 263 263 263 262 262
309 307 306 305 305 303 299 293 286 280 272 264 255 245 234 222 209 195 186 179 173 166 160 153 147 143 144 151 160 169 176 181 184 185 187 191 196 203 209 215 220 224 228 231 233 235 236 236 235 235 235 236 238 241 244 245 246 247 248 250 253 256 260 263 266 268 269 270 271 271 271 269 268 267 266 265 263 263 262 262 262 263 263 263 263 263
311 310 309 308 307 305 299 290 280 271 262 252 241 228 215 203 190 177 167 160 155 150 145 140 136 137 145 155 164 172 178 181 184 186 191 197 204 211 217 222 226 228 231 233 234 234 233 232 231 232 233 234 237 240 243 245 247 249 251 253 257 260 263 266 268 270 271 271 271 271 270 268 266 265 263 261 260 259 259 260 261 263 263 264 264 264
313 312 311 310 308 304 296 284 272 261 250 238 226 212 198 184 170 160 153 147 143 140 137 136 137 144 154 163 170 175 179 182 185 191 198 205 212 218 222 226 228 231 232 232 232 231 229 227 227 228 231 233 235 238 242 245 248 251 255 258 261 264 267 269 271 271 272 272 271 270 268 266 264 262 260 259 258 257 257 259 260 262 264 265 265 265
Height
2905 2904 2905 2905 2905 2904 2902 2903 2904 2903 2901 2901 2901 2901 2901 2900 2900 2899 2900 2900 2899 2899 2898 2897 2897 2896 2896 2897 2897 2897 2897 2898 2898 2898 2898 2898 2898 2897 2897 2897 2897 2897 2897 2897 2898 2898 2898 2898 2898 2899 2899 2900 2900 2901 2901 2902 2902 2903 2904 2904 2905 2905 2906 2906 2907 2907 2907 2907 2907 2907 2908 2908 2908 2908 2908 2908 2908 2907 2906 2906 2905 2905 2905 2904 2904 2903
2901 2901 2900 2900 2900 2899 2897 2898 2899 2899 2897 2896 2896 2896 2896 2896 2895 2895 2895 2895 2894 2894 2894 2893 2893 2892 2891 2891 2892 2892 2892 2893 2893 2894 2894 2894 2894 2893 2893 2893 2893 2894 2894 2894 2894 2894 2894 2894 2895 2895 2895 2895 2896 2896 2897 2897 2898 2899 2900 2901 2901 2901 2902 2903 2903 2903 2903 2903 2904 2904 2904 2904 2905 2905 2904 2904 2904 2904 2903 2902 2901 2901 2901 2901 2900 2900
2898 2896 2896 2896 2895 2894 2892 2893 2894 2894 2893 2892 2891 2891 2891 2890 2890 2889 2889 2889 2889 2889 2889 2889 2889 2888 2887 2887 2886 2887 2887 2887 2888 2889 2889 2889 2889 2889 2889 2889 2889 2889 2890 2890 2890 2890 2890 2890 2891 2891 2892 2891 2891 2892 2892 2893 2894 2895 2896 2896 2897 2898 2898 2899 2899 2899 2899 2900 2900 2900 2901 2901 2901 2901 2901 2900 2900 2900 2899 2899 2898 2898 2897 2897 2896 2896
2894 2893 2891 2891 2891 2890 2889 2889 2888 2888 2888 2888 2887 2887 2886 2885 2884 2884 2884 2884 2884 2884 2884 2884 2884 2884 2883 2882 2882 2881 2881 2882 2883 2884 2885 2885 2885 2884 2884 2884 2884 2884 2885 2885 2886 2886 2886 2886 2887 2887 2888 2888 2888 2888 2888 2889 2890 2891 2891 2892 2893 2894 2894 2895 2895 2896 2896 2896 2896 2896 2896 2897 2897 2897 2897 2896 2896 2896 2896 2895 2895 2894 2894 2893 2892 2892
2890 2889 2887 2887 2886 2885 2885 2885 2884 2883 2883 2882 2882 2882 2882 2881 2880 2879 2879 2879 2879 2879 2879 2879 2880 2879 2879 2878 2877 2877 2877 2877 2877 2879 2880 2881 2881 2880 2879 2879 2879 2879 2880 2881 2881 2881 2882 2882 2883 2883 2884 2884 2885 2885 2885 2885 2885 2886 2887 2888 2889 2889 2890 2891 2891 2891 2891 2892 2892 2892 2892 2893 2893 2893 2893 2893 2893 2892 2892 2891 2891 2891 2890 2889 2889 2888
2885 2885 2883 2883 2881 2880 2880 2880 2880 2879 2879 2878 2877 2877 2877 2876 2876 2875 2874 2874 2874 2873 2874 2874 2874 2874 2874 2873 2873 2873 2872 2872 2872 2874 2875 2876 2876 2875 2875 2874 2874 2874 2875 2876 2876 2877 2878 2878 2879 2879 2879 2880 2881 2881 2881 2881 2881 2881 2882 2883 2884 2885 2886 2886 2887 2887 2888 2888 2888 2888 2889 2889 2889 2889 2889 2889 2889 2889 2888 2888 2887 2887 2886 2886 2885 2885
2880 2880 2880 2879 2877 2876 2876 2875 2875 2876 2875 2874 2872 2872 2872 2871 2871 2871 2870 2869 2869 2869 2868 2869 2869 2869 2869 2869 2869 2868 2868 2868 2868 2869 2870 2870 2870 2870 2870 2869 2869 2870 2871 2871 2872 2873 2874 2874 2874 2874 2875 2876 2876 2877 2877 2876 2876 2877 2878 2879 2880 2881 2882 2882 2883 2883 2884 2884 2884 2884 2885 2885 2885 2885 2885 2885 2885 2885 2884 2884 2883 2883 2882 2882 2881 2881
2875 2875 2876 2875 2874 2872 2871 2871 2871 2871 2871 2870 2869 2867 2866 2866 2866 2866 2865 2865 2864 2864 2864 2863 2863 2863 2863 2864 2864 2864 2863 2863 2864 2864 2865 2865 2865 2865 2865 2865 2865 2865 2866 2867 2868 2868 2869 2869 2869 2870 2871 2871 2872 2872 2872 2872 2872 2872 2873 2875 2876 2877 2878 2878 2879 2879 2880 2880 2880 2881 2881 2881 2881 2881 2881 2881 2881 2881 2880 2880 2879 2879 2878 2878 2877 2877
2872 2871 2871 2871 2870 2868 2866 2866 2866 2867 2867 2866 2865 2863 2862 2861 2860 2860 2860 2859 2859 2859 2859 2858 2858 2858 2858 2859 2859 2858 2858 2859 2859 2859 2860 2860 2860 2860 2860 2860 2861 2861 2861 2862 2863 2864 2864 2865 2865 2865 2866 2866 2867 2868 2868 2868 2868 2868 2869 2870 2871 2872 2873 2874 2875 2876 2876 2876 2876 2877 2877 2877 2877 2877 2877 2877 2877 2877 2876 2876 2876 2875 2874 2874 2873 2873
2868 2867 2866 2866 2866 2865 2863 2861 2861 2862 2863 2861 2860 2859 2858 2857 2856 2855 2854 2853 2853 2854 2854 2853 2852 2852 2853 2853 2853 2853 2853 2854 2854 2855 2855 2855 2855 2855 2855 2856 2856 2856 2857 2858 2858 2859 2860 2860 2861 2861 2861 2862 2862 2863 2863 2863 2863 2864 2864 2866 2867 2868 2869 2870 2871 2871 2872 2872 2873 2873 2873 2873 2873 2872 2872 2873 2873 2873 2872 2872 2871 2871 2870 2870 2870 2869
2864 2863 2862 2861 2860 2860 2859 2857 2856 2857 2858 2857 2856 2854 2854 2854 2853 2852 2850 2848 2848 2849 2848 2848 2847 2847 2847 2847 2848 2848 2848 2848 2849 2849 2850 2850 2850 2850 2851 2851 2851 2852 2852 2853 2854 2854 2855 2855 2856 2856 2856 2857 2857 2858 2858 2858 2858 2859 2860 2861 2862 2864 2865 2866 2867 2868 2868 2868 2869 2869 2869 2869 2868 2868 2868 2869 2869 2869 2868 2868 2867 2867 2866 2866 2866 2865
2859 2858 2858 2857 2856 2856 2855 2854 2853 2853 2853 2852 2851 2850 2849 2850 2850 2849 2847 2844 2844 2844 2844 2843 2842 2842 2842 2843 2843 2843 2842 2842 2843 2843 2845 2845 2845 2846 2846 2846 2847 2848 2848 2849 2849 2849 2850 2850 2851 2851 2852 2852 2852 2853 2853 2854 2854 2854 2855 2856 2858 2859 2860 2861 2863 2864 2864 2864 2865 2865 2865 2864 2864 2864 2865 2865 2865 2865 2864 2864 2863 2863 2862 2862 2862 2861
2856 2855 2854 2852 2852 2851 2850 2850 2849 2849 2848 2848 2847 2846 2844 2845 2846 2846 2843 2841 2840 2840 2840 2839 2837 2837 2837 2838 2838 2837 2837 2837 2837 2838 2839 2840 2841 2841 2841 2842 2843 2843 2844 2844 2844 2844 2845 2845 2846 2846 2847 2847 2848 2848 2849 2849 2849 2850 2850 2851 2853 2854 2856 2857 2858 2859 2860 2860 2860 2861 2860 2860 2860 2860 2861 2861 2861 2861 2860 2860 2859 2859 2858 2858 2858 2858
2851 2851 2850 2849 2848 2847 2846 2846 2845 2844 2843 2844 2843 2842 2841 2841 2841 2840 2839 2837 2836 2836 2836 2835 2833 2832 2832 2833 2833 2833 2832 2832 2832 2833 2834 2834 2836 2837 2837 2837 2838 2839 2839 2839 2838 2838 2839 2841 2841 2841 2842 2843 2843 2844 2844 2845 2845 2846 2846 2846 2848 2849 2851 2852 2853 2855 2855 2856 2856 2856 2856 2856 2856 2856 2856 2857 2857 2856 2856 2856 2855 2855 2855 2854 2854 2854
2848 2847 2846 2845 2844 2844 2843 2843 2842 2841 2840 2840 2840 2839 2837 2836 2836 2836 2835 2833 2832 2832 2832 2831 2829 2828 2827 2827 2829 2829 2828 2828 2828 2829 2829 2830 2831 2832 2833 2833 2833 2834 2834 2833 2833 2833 2834 2835 2836 2836 2837 2838 2839 2839 2840 2840 2841 2841 2841 2842 2843 2844 2846 2847 2849 2850 2850 2851 2851 2851 2851 2851 2851 2852 2852 2853 2852 2852 2852 2851 2851 2851 2851 2851 2851 2850
2844 2844 2842 2841 2840 2839 2839 2839 2839 2838 2837 2837 2837 2836 2834 2832 2831 2831 2831 2829 2828 2828 2827 2826 2825 2824 2823 2823 2824 2825 2825 2825 2824 2824 2825 2825 2826 2828 2828 2828 2828 2828 2828 2828 2828 2828 2829 2830 2830 2831 2832 2833 2834 2835 2836 2836 2836 2837 2837 2837 2838 2839 2841 2843 2844 2845 2845 2846 2846 2846 2847 2847 2847 2848 2848 2848 2848 2848 2848 2847 2847 2847 2847 2847 2847 2847
2840 2839 2838 2837 2836 2835 2835 2835 2834 2833 2833 2833 2833 2832 2831 2830 2828 2827 2826 2825 2825 2824 2823 2822 2821 2820 2818 2818 2819 2821 2821 2821 2820 2819 2820 2820 2821 2822 2823 2823 2822 2822 2823 2823 2823 2824 2824 2824 2825 2826 2827 2828 2829 2831 2831 2832 2832 2833 2833 2833 2833 2835 2836 2838 2839 2840 2841 2841 2842 2842 2842 2842 2843 2844 2844 2844 2844 2844 2844 2843 2843 2843 2843 2843 2843 2843
2836 2835 2834 2833 2832 2831 2831 2831 2830 2830 2829 2829 2828 2828 2827 2826 2826 2825 2823 2823 2822 2821 2819 2818 2817 2816 2816 2815 2815 2816 2817 2816 2815 2814 2814 2814 2816 2817 2818 2818 2818 2818 2819 2819 2819 2819 2820 2819 2820 2820 2821 2823 2825 2826 2826 2827 2828 2828 2828 2829 2829 2830 2832 2833 2834 2835 2836 2836 2837 2837 2838 2838 2839 2839 2840 2840 2840 2840 2840 2839 2839 2839 2840 2840 2840 2840
2831 2831 2831 2829 2828 2827 2827 2827 2826 2826 2826 2825 2824 2824 2822 2821 2822 2821 2820 2819 2818 2817 2816 2815 2814 2813 2813 2812 2811 2812 2813 2812 2811 2810 2810 2810 2811 2812 2813 2814 2814 2814 2815 2815 2815 2816 2816 2816 2816 2816 2817 2818 2820 2821 2821 2822 2823 2823 2824 2824 2825 2826 2827 2829 2830 2830 2831 2832 2832 2833 2834 2834 2835 2835 2836 2836 2836 2836 2836 2836 2836 2836 2836 2836 2836 2836
2827 2827 2827 2826 2825 2824 2823 2823 2823 2823 2822 2821 2821 2820 2818 2817 2817 2817 2816 2816 2815 2814 2812 2811 2810 2809 2809 2809 2809 2809 2808 2808 2808 2807 2806 2807 2807 2808 2808 2809 2810 2810 2810 2810 2811 2811 2812 2812 2812 2812 2813 2814 2815 2816 2816 2817 2818 2818 2819 2820 2821 2822 2823 2824 2825 2826 2826 2827 2828 2829 2830 2831 2831 2831 2831 2831 2831 2831 2831 2832 2832 2832 2832 2833 2833 2833
2823 2822 2823 2823 2823 2821 2819 2818 2819 2819 2819 2818 2818 2816 2815 2814 2813 2812 2811 2811 2811 2810 2809 2807 2806 2805 2806 2806 2806 2805 2804 2804 2804 2804 2804 2803 2803 2803 2804 2805 2806 2806 2806 2806 2806 2807 2807 2808 2808 2809 2809 2810 2810 2811 2811 2812 2813 2814 2815 2816 2817 2818 2819 2820 2821 2821 2822 2823 2824 2825 2826 2826 2827 2827 2828 2828 2828 2828 2828 2828 2828 2828 2829 2829 2830 2830
2819 2818 2818 2819 2819 2817 2816 2815 2815 2815 2816 2816 2816 2814 2812 2811 2810 2808 2808 2807 2807 2806 2804 2803 2802 2802 2802 2802 2801 2800 2799 2800 2800 2801 2801 2800 2799 2799 2800 2801 2801 2802 2802 2802 2802 2802 2803 2803 2804 2804 2805 2806 2806 2806 2807 2808 2809 2809 2810 2811 2812 2813 2814 2815 2816 2817 2819 2820 2821 2821 2822 2823 2823 2824 2824 2824 2824 2824 2824 2824 2825 2825 2826 2826 2827 2827
2816 2815 2814 2815 2815 2813 2812 2811 2811 2811 2811 2812 2811 2810 2809 2808 2807 2805 2804 2804 2803 2801 2800 2799 2798 2798 2798 2798 2797 2796 2795 2795 2796 2797 2797 2796 2794 2794 2796 2796 2797 2797 2797 2797 2797 2797 2799 2799 2800 2800 2801 2801 2801 2802 2803 2803 2804 2805 2806 2806 2808 2809 2810 2811 2813 2814 2815 2816 2817 2818 2819 2819 2820 2820 2820 2820 2820 2820 2821 2821 2821 2822 2823 2823 2824 2824
2813 2811 2811 2811 2810 2810 2809 2808 2808 2807 2807 2807 2806 2805 2805 2804 2803 2801 2801 2800 2799 2798 2796 2796 2795 2794 2793 2793 2793 2792 2791 2792 2793 2793 2792 2791 2791 2791 2791 2792 2792 2793 2793 2793 2793 2793 2794 2795 2796 2796 2797 2797 2797 2798 2798 2799 2800 2800 2801 2802 2803 2805 2806 2808 2809 2811 2811 2813 2814 2815 2815 2816 2816 2816 2816 2816 2816 2817 2817 2818 2818 2819 2820 2820 2821 2821
2809 2808 2807 2807 2807 2806 2806 2805 2804 2804 2803 2803 2802 2801 2800 2799 2798 2797 2796 2795 2795 2795 2794 2793 2791 2789 2789 2789 2789 2788 2788 2788 2788 2788 2788 2787 2787 2787 2787 2787 2788 2788 2789 2788 2788 2789 2790 2790 2791 2792 2793 2793 2794 2794 2794 2795 2795 2796 2797 2798 2800 2801 2803 2805 2806 2807 2808 2810 2811 2811 2812 2812 2812 2812 2812 2813 2813 2814 2814 2815 2816 2816 2817 2817 2818 2818
2806 2805 2804 2803 2803 2802 2802 2801 2801 2800 2800 2799 2798 2797 2796 2795 2794 2792 2791 2791 2790 2790 2790 2788 2786 2785 2785 2785 2785 2784 2784 2784 2784 2784 2784 2785 2785 2784 2783 2783 2784 2784 2784 2784 2784 2784 2785 2786 2787 2789 2789 2790 2790 2790 2790 2791 2791 2792 2793 2795 2796 2798 2800 2802 2803 2805 2806 2806 2807 2808 2808 2808 2808 2809 2809 2810 2810 2811 2811 2812 2813 2814 2814 2815 2815 2816
2802 2801 2801 2800 2799 2799 2798 2797 2797 2796 2796 2795 2794 2794 2793 2792 2790 2788 2786 2786 2786 2787 2786 2784 2782 2781 2781 2781 2780 2780 2781 2781 2781 2781 2781 2782 2781 2780 2779 2779 2780 2780 2780 2780 2780 2781 2781 2782 2783 2785 2786 2786 2786 2786 2786 2787 2788 2789 2791 2792 2794 2796 2797 2799 2801 2802 2803 2803 2804 2804 2804 2805 2805 2806 2806 2806 2807 2808 2809 2810 2811 2811 2811 2812 2812 2812
2798 2797 2797 2796 2796 2795 2794 2793 2793 2792 2791 2791 2791 2790 2790 2789 2786 2783 2781 2782 2783 2783 2782 2780 2779 2778 2777 2776 2776 2776 2777 2777 2777 2777 2778 2779 2778 2776 2776 2776 2776 2776 2776 2776 2776 2777 2777 2778 2780 2781 2782 2783 2783 2783 2783 2784 2785 2786 2788 2790 2791 2793 2795 2796 2798 2799 2799 2800 2800 2801 2801 2801 2802 2802 2803 2804 2804 2805 2806 2807 2808 2808 2809 2809 2809 2810
2794 2794 2793 2792 2791 2791 2790 2789 2789 2788 2788 2787 2787 2786 2786 2785 2782 2780 2778 2779 2780 2779 2776 2776 2775 2774 2773 2773 2772 2772 2772 2773 2774 2774 2775 2775 2774 2773 2772 2772 2772 2772 2772 2772 2772 2773 2773 2775 2776 2778 2779 2779 2780 2780 2780 2781 2782 2784 2786 2787 2789 2791 2793 2794 2795 2796 2796 2796 2797 2797 2798 2798 2799 2799 2800 2801 2802 2803 2804 2805 2805 2805 2806 2806 2806 2807
2790 2789 2788 2788 2787 2787 2786 2785 2785 2784 2784 2783 2783 2782 2781 2780 2778 2776 2776 2776 2776 2774 2772 2771 2771 2771 2771 2770 2769 2769 2768 2769 2771 2771 2772 2771 2770 2769 2769 2769 2769 2768 2768 2768 2768 2768 2769 2771 2772 2774 2775 2776 2776 2777 2777 2779 2780 2782 2784 2786 2787 2789 2790 2791 2792 2792 2793 2793 2794 2794 2795 2796 2796 2797 2798 2799 2800 2801 2801 2802 2802 2802 2803 2803 2804 2804
2785 2785 2784 2784 2783 2783 2782 2781 2781 2780 2779 2779 2778 2778 2777 2776 2774 2773 2773 2772 2771 2770 2768 2767 2767 2767 2767 2767 2766 2765 2765 2766 2767 2768 2768 2768 2766 2766 2766 2765 2765 2765 2764 2764 2764 2764 2765 2766 2769 2770 2772 2773 2773 2774 2775 2776 2778 2780 2782 2783 2785 2786 2787 2788 2789 2789 2790 2790 2791 2791 2792 2793 2793 2794 2795 2796 2797 2798 2798 2799 2799 2799 2800 2800 2801 2801
2780 2780 2779 2779 2779 2778 2778 2777 2776 2776 2775 2774 2774 2774 2773 2771 2771 2770 2769 2768 2767 2766 2764 2763 2763 2764 2764 2763 2763 2762 2761 2762 2763 2764 2764 2764 2763 2762 2762 2762 2761 2761 2761 2761 2761 2761 2761 2763 2765 2767 2769 2770 2771 2772 2773 2775 2776 2778 2780 2781 2782 2783 2784 2785 2786 2786 2787 2787 2788 2789 2789 2790 2791 2792 2793 2794 2795 2795 2796 2796 2796 2796 2796 2797 2798 2798
2776 2776 2775 2774 2774 2773 2773 2772 2771 2771 2770 2770 2770 2769 2768 2767 2766 2766 2765 2764 2763 2761 2761 2760 2760 2760 2760 2759 2759 2758 2758 2758 2759 2760 2760 2760 2759 2758 2758 2758 2757 2756 2756 2757 2757 2758 2758 2760 2762 2764 2766 2767 2769 2770 2771 2773 2775 2776 2777 2779 2780 2781 2781 2782 2783 2783 2784 2785 2785 2786 2787 2788 2789 2790 2791 2791 2792 2792 2793 2793 2793 2794 2794 2794 2795 2796
2772 2771 2771 2770 2770 2769 2768 2768 2767 2766 2766 2765 2765 2764 2764 2763 2762 2761 2760 2760 2759 2757 2757 2756 2756 2756 2755 2755 2755 2755 2755 2755 2755 2756 2756 2756 2755 2754 2754 2753 2753 2753 2753 2754 2754 2755 2756 2758 2761 2762 2764 2766 2767 2768 2770 2771 2773 2774 2775 2776 2777 2778 2778 2779 2780 2780 2781 2782 2782 2783 2785 2786 2786 2787 2788 2789 2790 2790 2790 2790 2791 2791 2791 2792 2792 2793
2768 2768 2767 2766 2766 2765 2764 2764 2763 2762 2761 2761 2761 2760 2759 2759 2758 2757 2756 2755 2754 2754 2753 2752 2752 2752 2751 2751 2751 2751 2751 2751 2752 2752 2752 2751 2751 2750 2750 2749 2750 2750 2751 2751 2752 2753 2755 2757 2759 2761 2763 2764 2766 2767 2768 2770 2771 2772 2773 2774 2774 2775 2776 2776 2777 2778 2778 2779 2780 2781 2782 2783 2784 2785 2786 2786 2787 2787 2787 2788 2788 2788 2789 2789 2790 2790
2765 2764 2763 2762 2761 2761 2760 2759 2759 2758 2757 2757 2756 2756 2755 2754 2753 2752 2751 2751 2750 2750 2749 2749 2748 2748 2748 2747 2747 2747 2747 2748 2748 2748 2748 2747 2746 2746 2746 2747 2747 2748 2749 2750 2751 2752 2754 2756 2758 2760 2761 2763 2764 2765 2766 2768 2769 2770 2770 2771 2772 2772 2773 2774 2774 2775 2776 2777 2778 2779 2780 2781 2782 2783 2783 2784 2784 2785 2785 2785 2785 2786 2786 2786 2787 2787
2761 2760 2759 2758 2757 2756 2756 2755 2754 2754 2753 2752 2752 2751 2751 2750 2749 2748 2747 2747 2746 2746 2745 2745 2745 2744 2744 2744 2744 2744 2744 2744 2744 2744 2744 2743 2743 2744 2744 2745 2746 2746 2747 2748 2750 2752 2754 2756 2758 2759 2760 2761 2762 2764 2765 2766 2766 2767 2768 2769 2769 2770 2771 2771 2772 2773 2774 2775 2776 2777 2778 2779 2780 2780 2781 2781 2782 2782 2782 2782 2783 2783 2783 2784 2784 2785
2757 2756 2756 2755 2754 2752 2751 2751 2750 2750 2749 2748 2747 2747 2746 2746 2745 2744 2743 2743 2742 2741 2741 2741 2741 2740 2740 2740 2740 2740 2740 2741 2741 2741 2741 2741 2741 2742 2743 2744 2744 2745 2746 2748 2749 2751 2753 2755 2756 2758 2759 2760 2761 2762 2763 2763 2764 2765 2766 2766 2766 2767 2768 2769 2770 2771 2772 2773 2774 2775 2776 2777 2777 2778 2778 2779 2779 2779 2780 2780 2780 2781 2781 2781 2781 2782
2754 2753 2752 2751 2750 2749 2747 2746 2746 2745 2745 2744 2743 2743 2742 2741 2741 2740 2740 2739 2738 2738 2737 2737 2736 2736 2736 2736 2736 2736 2737 2737 2737 2737 2738 2739 2740 2741 2741 2742 2743 2744 2746 2747 2749 2751 2752 2754 2755 2756 2757 2758 2759 2760 2760 2761 2762 2762 2763 2764 2764 2765 2766 2767 2768 2769 2770 2771 2772 2773 2774 2774 2775 2775 2776 2776 2776 2777 2777 2777 2777 2778 2778 2778 2778 2779
2751 2750 2748 2747 2746 2745 2744 2743 2742 2741 2740 2740 2739 2739 2738 2738 2737 2736 2736 2735 2734 2734 2733 2733 2733 2733 2732 2732 2733 2733 2734 2734 2735 2735 2736 2737 2738 2740 2741 2741 2742 2744 2745 2746 2748 2750 2751 2752 2754 2754 2755 2756 2757 2757 2758 2759 2759 2760 2761 2761 2762 2763 2764 2765 2766 2767 2768 2769 2770 2771 2771 2772 2772 2773 2773 2773 2774 2774 2774 2774 2775 2775 2775 2775 2775 2776
2747 2746 2745 2744 2743 2741 2740 2739 2738 2737 2736 2736 2736 2735 2735 2734 2734 2733 2732 2731 2731 2730 2730 2730 2730 2729 2729 2729 2730 2730 2731 2731 2732 2733 2735 2736 2737 2739 2739 2741 2742 2743 2744 2746 2747 2749 2750 2751 2752 2753 2753 2754 2755 2755 2756 2756 2757 2758 2758 2759 2760 2761 2762 2763 2764 2766 2766 2767 2768 2768 2769 2769 2770 2770 2770 2771 2771 2771 2771 2771 2771 2771 2772 2772 2772 2773
2744 2743 2741 2740 2739 2737 2736 2735 2734 2734 2733 2732 2732 2731 2731 2731 2731 2730 2729 2728 2728 2727 2727 2727 2726 2726 2726 2726 2727 2727 2728 2730 2731 2732 2734 2735 2736 2737 2739 2740 2741 2742 2744 2745 2747 2748 2749 2750 2751 2751 2751 2752 2753 2753 2754 2755 2755 2756 2757 2758 2758 2759 2760 2761 2762 2763 2764 2765 2766 2766 2766 2766 2767 2767 2767 2768 2768 2768 2768 2768 2768 2769 2769 2769 2770 2770
2741 2740 2738 2736 2735 2734 2733 2732 2731 2730 2730 2729 2729 2728 2728 2728 2727 2727 2726 2725 2725 2724 2724 2724 2724 2724 2724 2724 2724 2725 2726 2728 2729 2731 2732 2734 2736 2737 2738 2739 2741 2742 2743 2745 2746 2747 2748 2748 2749 2749 2750 2751 2751 2752 2752 2753 2754 2754 2755 2756 2757 2757 2758 2760 2761 2761 2762 2762 2763 2763 2764 2764 2764 2765 2765 2765 2765 2765 2765 2766 2766 2766 2766 2766 2767 2767
2738 2736 2735 2733 2732 2731 2729 2728 2727 2727 2726 2726 2726 2726 2725 2725 2724 2723 2723 2722 2722 2722 2721 2721 2721 2721 2721 2721 2722 2724 2725 2727 2728 2730 2732 2733 2735 2736 2737 2739 2740 2741 2742 2744 2745 2745 2746 2746 2747 2748 2748 2749 2750 2750 2751 2751 2752 2753 2754 2754 2755 2756 2757 2758 2758 2759 2759 2760 2760 2761 2761 2761 2761 2762 2762 2762 2762 2762 2762 2763 2763 2763 2764 2764 2764 2765
2735 2733 2732 2730 2729 2727 2726 2725 2725 2724 2723 2723 2723 2723 2722 2722 2721 2721 2720 2720 2719 2719 2719 2719 2719 2719 2720 2720 2721 2722 2724 2726 2728 2730 2731 2733 2735 2736 2737 2738 2739 2741 2741 2742 2743 2744 2744 2745 2746 2746 2747 2748 2748 2749 2749 2750 2751 2751 2752 2752 2753 2754 2755 2756 2756 2756 2757 2757 2757 2758 2758 2758 2759 2759 2759 2759 2759 2760 2760 2760 2760 2761 2761 2761 2762 2762
2732 2731 2729 2727 2726 2725 2724 2723 2722 2721 2721 2721 2721 2720 2720 2719 2718 2718 2717 2717 2717 2716 2717 2717 2717 2718 2718 2719 2720 2722 2724 2726 2728 2730 2731 2733 2734 2735 2736 2738 2739 2740 2740 2741 2741 2742 2743 2743 2744 2745 2746 2746 2747 2747 2748 2748 2749 2749 2750 2751 2751 2751 2752 2753 2753 2754 2754 2755 2755 2755 2756 2756 2756 2756 2756 2757 2757 2757 2757 2758 2758 2758 2758 2759 2759 2760
2729 2728 2726 2725 2723 2722 2721 2720 2719 2719 2719 2718 2718 2717 2717 2716 2716 2715 2715 2715 2715 2715 2715 2716 2716 2716 2717 2718 2720 2722 2724 2726 2728 2730 2731 2732 2733 2735 2736 2737 2738 2738 2739 2740 2740 2741 2741 2742 2743 2744 2744 2745 2745 2746 2746 2747 2747 2747 2748 2748 2749 2749 2750 2750 2751 2751 2751 2752 2752 2752 2753 2753 2753 2754 2754 2754 2755 2755 2755 2755 2756 2756 2756 2756 2757 2757
2726 2725 2723 2722 2721 2720 2719 2718 2717 2717 2716 2716 2715 2715 2714 2714 2713 2713 2713 2713 2713 2713 2714 2715 2716 2716 2717 2718 2720 2722 2724 2726 2727 2729 2731 2732 2733 2734 2735 2736 2736 2737 2738 2739 2739 2740 2740 2741 2742 2742 2743 2744 2744 2744 2745 2745 2746 2746 2746 2747 2747 2747 2747 2748 2748 2749 2749 2749 2750 2750 2751 2751 2751 2751 2752 2752 2752 2753 2753 2753 2753 2753 2754 2754 2754 2755
2724 2722 2720 2719 2718 2717 2716 2716 2715 2715 2714 2713 2713 2712 2712 2711 2711 2711 2711 2711 2712 2713 2714 2714 2715 2716 2717 2719 2720 2722 2724 2726 2727 2729 2730 2731 2732 2733 2734 2735 2736 2736 2737 2737 2738 2739 2739 2740 2741 2741 2742 2742 2742 2743 2743 2744 2744 2745 2745 2745 2746 2746 2746 2746 2746 2746 2747 2747 2747 2748 2748 2748 2749 2749 2750 2750 2751 2751 2751 2751 2751 2751 2751 2751 2751 2752
2721 2719 2718 2716 2716 2715 2714 2714 2713 2712 2712 2711 2711 2710 2710 2709 2709 2709 2709 2710 2711 2712 2713 2714 2715 2716 2718 2719 2721 2722 2724 2726 2727 2728 2730 2731 2732 2732 2733 2734 2734 2735 2736 2736 2737 2737 2738 2739 2740 2740 2741 2741 2741 2741 2742 2742 2743 2743 2743 2744 2744 2744 2744 2744 2744 2744 2745 2745 2745 2746 2746 2746 2746 2747 2748 2748 2749 2749 2749 2749 2749 2749 2749 2749 2749 2749
2719 2717 2716 2714 2713 2713 2712 2712 2711 2711 2710 2709 2708 2708 2707 2707 2707 2708 2709 2710 2711 2712 2713 2714 2715 2717 2718 2720 2721 2723 2724 2726 2727 2728 2729 2730 2731 2731 2732 2733 2733 2734 2734 2735 2736 2737 2737 2738 2738 2739 2739 2740 2740 2741 2741 2741 2741 2741 2741 2742 2742 2742 2742 2742 2742 2742 2743 2743 2743 2743 2744 2744 2745 2745 2746 2746 2747 2747 2747 2747 2747 2746 2746 2746 2746 2746